Content
SEND FEEDBACK

Daily
Averages
Monthly
Summary
United States of America

GLENWOOD, WASHINGTON


Home > North America > United States > Washington
Elevation: 1896 feet     Latitude: 46 01N     Longitude: 121 17W

WEATHER
 
SELECT A DAY
Number of Records: 164,351;   Date Range: 1/1/95 - 7/29/14
 
SHARE

PRINT THIS DATA

[ ← Previous Day ]
WEATHER ALMANAC - FEBRUARY 13, 2013
[ Next Day → ]
[ °C ]   °F
Weather ElementAverageHighLow
Temperature50.5 °F57 °F (11:53 am)46 °F (10:53 pm)
Dewpoint37.8 °F42.1 °F (10:53 am)34 °F (2:53 pm)
Humidity62.4 %74 % (7:53 am)48 % (2:53 pm)
Barometer30.38 in30.46 in (10:53 pm)30.33 in (3:53 am)
Wind Speed13.8 mph20.7 mph (1:53 pm)
Wind Gust25.3 mph (1:53 pm)
Weather ElementAverage
Visibility10 mi
Wind DirectionWNW (303.9 °)

Weather ElementTotal
Precipitation---
Heating Degree Days13.5 (Base 65)
Growing Degree Days1.5 (Base 50)
Averaged from 23 records on February 13, 2013
WEATHER CONDITIONS BREAKOUT
WIND DIRECTION BREAKOUT
WEATHER BY HOUR - FEBRUARY 13, 2013
[ °C ]   °F
Local TimeTemperatureDewpointHumidityBarometerVisibilityWind DirectionWind SpeedGust SpeedPrecipitationEventsConditions
1:53 AM50.0 °F39.9 °F68 %30.35 in10.0 miNNW (330°)17.3 mphOvercast
2:53 AM50.0 °F41.0 °F71 %30.34 in10.0 miNNW (330°)12.7 mphOvercast
3:53 AM50.0 °F41.0 °F71 %30.33 in10.0 miNNW (340°)12.7 mphOvercast
4:53 AM50.0 °F39.9 °F68 %30.34 in10.0 miNNW (340°)12.7 mphOvercast
5:53 AM48.9 °F39.9 °F71 %30.35 in10.0 miNNW (330°)12.7 mphOvercast
6:53 AM48.9 °F39.9 °F71 %30.35 in10.0 miNNW (330°)11.5 mphOvercast
7:53 AM48.9 °F41.0 °F74 %30.37 in10.0 miNNW (330°)12.7 mphOvercast
8:53 AM50.0 °F41.0 °F71 %30.38 in10.0 miNNW (330°)13.8 mphOvercast
9:53 AM51.1 °F41.0 °F68 %30.39 in10.0 miNNW (330°)16.1 mphMostly Cloudy
10:53 AM55.0 °F42.1 °F62 %30.39 in10.0 miNNW (330°)13.8 mphPartly Cloudy
11:53 AM57.0 °F41.0 °F55 %30.38 in10.0 miNW (320°)16.1 mphPartly Cloudy
12:53 PM55.0 °F37.0 °F51 %30.37 in10.0 miNW (310°)11.5 mphClear
1:53 PM54.0 °F36.0 °F51 %30.35 in10.0 miWNW (290°)20.7 mph25.3 mphClear
2:53 PM53.1 °F34.0 °F48 %30.36 in10.0 miWNW (300°)16.1 mph24.2 mphPartly Cloudy
3:53 PM54.0 °F35.1 °F49 %30.38 in10.0 miWNW (290°)15.0 mphClear
4:53 PM52.0 °F34.0 °F50 %30.38 in10.0 miNW (310°)13.8 mphClear
5:53 PM48.9 °F36.0 °F61 %30.38 in10.0 miNW (310°)10.4 mphClear
6:53 PM48.9 °F37.0 °F64 %30.41 in10.0 miWNW (300°)18.4 mph24.2 mphClear
7:53 PM48.0 °F36.0 °F63 %30.42 in10.0 miNNW (330°)8.1 mphClear
8:53 PM46.9 °F34.0 °F61 %30.44 in10.0 miNW (320°)12.7 mphClear
9:53 PM48.0 °F34.0 °F58 %30.43 in10.0 miWNW (300°)20.7 mphClear
10:53 PM46.0 °F34.0 °F63 %30.46 in10.0 miVariable6.9 mphClear
11:53 PM46.0 °F35.1 °F66 %30.46 in10.0 miWNW (290°)11.5 mphClear
Hourly data recorded from KDLS, located miles away from Glenwood, Washington







STORIES FROM OUR PARTNERS